FENGYUN 1C DEB

Satellite information

Favourite Embed

Satellite Type and Status

DEBRISIN ORBIT

Key statistics

Satellite FENGYUN 1C DEB at a glance.

Uptime

9675

Days in orbit

Revolutions

≈ 12.6

Per day

Orbit

MEO

Medium Earth Orbit

Inclination

99.4

Latest

Satellite identification and parameters

Extended collection of information and parameters for FENGYUN 1C DEB.

Object identification

Identified? True

Debris? True

Object name: FENGYUN 1C DEB

International designator: 1999-025AA

Object number (NORAD): 29736

Object ID (CCSDS): 29736

Country: PEOPLES REPUBLIC OF CHINA (PRC)

Current information (Y/N): Y

RCS size: SMALL

Orbital parameters

Period: 114.523 minutes

Inclination: 99.4028 deg

SMA: 7811.865 km

Apoapsis: 2002.041 km

Periapsis: 865.419 km

RAAN: 132.7824 deg

Eccentricy: 0.07274976

Argument of periapsis: 286.9494 deg

Mean anomaly: 125.9553 deg

Mean motion: 12.57391956 rev/day

Mean motion (dot): 0.0000083 rev/day2

B* drag term: 0.0018930652 1/REarth

Two-line elements (TLE)

Creation date: Nov. 1, 2025, 7:40 p.m.

Reference frame: TEME

Reference center: EARTH

Epoch: Nov. 1, 2025, 12:02 p.m. UTC

TLE line 0: 0 FENGYUN 1C DEB

TLE line 1: 1 29736U 99025AA 25305.50148834 .00000830 00000-0 18931-2 0 9995

TLE line 2: 2 29736 99.4028 132.7824 0727498 286.9494 125.9553 12.57391956860267

Live tracking on map

Real-time ground track for satellite FENGYUN 1C DEB.

In-orbit conjunctions

A list of the most updated potential collisions computed for object FENGYUN 1C DEB.

Target Orbit TCA Probability of collision Miss distance Type
METEOR 2-2 LEO 2025-10-31 22:03:22 0.0007841391 146.0 (m) PAYLOAD
COSMOS 663 LEO 2025-03-17 13:31:13 0.0002681853 608.0 (m) PAYLOAD

Associated space launch

Chinese polar orbiting meteorological satellite

FENGYUN 1C DEB was lifted into orbit during the mission ‘Long March 4B | Feng Yun 1C’, on board a Long March 4B space rocket.

The launch took place on May 10, 1999, 1:33 a.m. from Launch Complex 7.

For more information about the launch, click the button.

Launch to space Long March 4B | Feng Yun 1C
Long March 4B | Feng Yun 1C

Agency: N/A

Status: Launch Successful

Launch date: May 10, 1999, 1:33 a.m. UTC

Rocket: Long March 4B

Launch pad: Launch Complex 7

Location: Taiyuan Satellite Launch Center, People's Republic of China

...

Latest news about this satellite

There are no fresh news available about this satellite. Check back as we update our databases every day.


Newsletter sign-up

Weekly statistics, charts and insights to help you stay on top of the space industry.